Regional Weather Roundup
Issued by NWS Raleigh/Durham, NC

Home | Current Version | Previous Version | Text Only | Print | Product List | Glossary On
Versions: 1 2 3 4 5 6 7 8 9 10 11 12 13 14 15 16 17 18 19 20 21 22 23 24 25 26 27 28 29 30 31 32 33 34 35 36 37 38 39 40 41 42 43 44 45 46 47 48 49 50
000
ASUS42 KRAH 271310
RWRRAH
NORTH CAROLINA WEATHER ROUNDUP
NATIONAL WEATHER SERVICE RALEIGH NC
900 AM EDT WED AUG 27 2014

NOTE: "FAIR" INDICATES FEW OR NO CLOUDS BELOW 12,000 FEET WITH NO
SIGNIFICANT WEATHER AND/OR OBSTRUCTIONS TO VISIBILITY.

NCZ001-053-055-056-065-067-271400-
WESTERN NORTH CAROLINA

CITY           SKY/WX    TMP DP  RH WIND       PRES   REMARKS
ASHEVILLE      FOG       59  58  96 CALM      30.21R VSB 1/4
JEFFERSON      CLOUDY    53  51  94 CALM      30.22R FOG
MORGANTON      SUNNY     62  60  92 CALM      30.20S
HICKORY        SUNNY     65  61  87 W5        30.15R
RUTHERFORDTON  SUNNY     66  61  83 NW7       30.16R
MOUNT AIRY     SUNNY     63  59  87 CALM      30.17S
BOONE          MOSUNNY   52  52 100 CALM      30.23S
$$

NCZ021-022-025-041-071-084-088-271400-
CENTRAL NORTH CAROLINA

CITY           SKY/WX    TMP DP  RH WIND       PRES   REMARKS
CHARLOTTE      SUNNY     69  62  78 N7        30.13R
GREENSBORO     MOSUNNY   69  61  75 CALM      30.11S
WINSTON-SALEM  SUNNY     69  58  67 NE7       30.14R
RALEIGH-DURHAM MOSUNNY   68  62  81 VRB5      30.09S
FORT BRAGG     SUNNY     70  62  77 N9        30.06R
FAYETTEVILLE   SUNNY     71  62  73 N12       30.05S
BURLINGTON     SUNNY     70  60  70 N5        30.10F
LAURINBURG     SUNNY     70  62  76 N9        30.07S
$$

NCZ011-015-027-028-043-044-047-080-103-271400-
NORTHEASTERN NORTH CAROLINA

CITY           SKY/WX    TMP DP  RH WIND       PRES   REMARKS
ROCKY MT-WILSO MOSUNNY   66  64  93 NW6       30.07R
GREENVILLE     CLOUDY    70  68  94 NE8       30.07R FOG
WASHINGTON     PTSUNNY   70  68  93 N8        30.04S
ELIZABETH CITY MOSUNNY   75  71  87 N9        30.03S
MANTEO         CLOUDY    77  72  86 N14G22    30.01S
CAPE HATTERAS  PTSUNNY   77  75  93 NE10G22   29.96F
$$

NCZ078-087-090-091-093-098-101-271400-
SOUTHEASTERN NORTH CAROLINA

CITY           SKY/WX    TMP DP  RH WIND       PRES   REMARKS
LUMBERTON      SUNNY     70  63  78 N8        30.04S
GOLDSBORO      CLOUDY    68  67  98 N7        30.04R FOG
KINSTON        CLOUDY    70  68  94 N8        30.06R FOG
KENANSVILLE    CLOUDY    68  64  88 NE6       30.06R
NEW BERN       CLOUDY    72  68  87 N9        30.03S
CHERRY POINT   PTSUNNY   74  69  85 N14       30.01R
BEAUFORT       PTSUNNY   77  71  82 N16G24    29.97S
JACKSONVILLE   CLOUDY    68  65  90 N12       30.01S
WILMINGTON     SUNNY     73  66  78 N8        30.00S
$$




USA.gov is the U.S. government's official web portal to all federal, state and local government web resources and services.